Regional Weather Roundup
Issued by NWS Boston, MA

Home | Current Version | Previous Version | Text Only | Print | Product List | Glossary On
Versions: 1 2 3 4 5 6 7 8 9 10 11 12 13 14 15 16 17 18 19 20 21 22 23 24 25 26 27 28
000
ASUS41 KBOX 242210
RWRBOX

REGIONAL WEATHER ROUNDUP
NATIONAL WEATHER SERVICE TAUNTON MA
600 PM EDT WED MAY 24 2017

NOTE:  "FAIR" INDICATES FEW OR NO CLOUDS BELOW 12,000 FEET WITH NO
SIGNIFICANT WEATHER AND/OR OBSTRUCTIONS TO VISIBILITY.

MAZALL-242300-
EASTERN MASSACHUSETTS

CITY           SKY/WX    TMP DP  RH WIND       PRES   REMARKS
BOSTON         CLOUDY    59  50  72 E8        29.85R
BEVERLY        MOSUNNY   63  51  65 SE8       29.84R
LAWRENCE       SUNNY     70  50  49 SE8       29.84R
BEDFORD        MOSUNNY   65  47  52 E7        29.81R
BLUE HILL        N/A     61  48  62 VRB5      29.82R
NORWOOD        CLOUDY    65  50  58 E8        29.82R
MARSHFIELD     CLOUDY    61  52  72 NE3       29.83R
PLYMOUTH       CLOUDY    60  50  69 NE8       29.84R
TAUNTON        CLOUDY    63  49  60 VRB5      29.82R
NEW BEDFORD    PTSUNNY   64  50  60 NE10      29.81R
$$

MAZALL-242300-
CAPE COD AND THE ISLANDS

CITY           SKY/WX    TMP DP  RH WIND       PRES   REMARKS
FALMOUTH         N/A    N/A N/A N/A MISG        N/A
HYANNIS        CLOUDY    62  50  64 E8        29.81R
CHATHAM        PTSUNNY   58  51  78 NE6       29.82R
PROVINCETOWN   PTSUNNY   57  50  77 NE7       29.84R
NANTUCKET      MOSUNNY   57  49  74 NE13G23   29.79R
MARTHAS VNYRD  PTSUNNY   60  51  72 NE15      29.81R
$$

MAZALL-242300-
CENTRAL AND WESTERN MASSACHUSETTS

CITY           SKY/WX    TMP DP  RH WIND       PRES   REMARKS
WORCESTER      CLOUDY    64  46  52 E8        29.82R
FITCHBURG      SUNNY     70  49  47 SE9       29.81S
ORANGE         MOSUNNY   71  48  43 SE8       29.78F
SPRINGFIELD    PTSUNNY   71  47  42 E8        29.76S
WESTFIELD      MOSUNNY   71  49  45 E5        29.77S
NORTH ADAMS    CLOUDY    71  49  45 E9        29.75F
PITTSFIELD     MOSUNNY   69  46  43 VRB7      29.76S
$$

RIZALL-242300-
RHODE ISLAND

CITY           SKY/WX    TMP DP  RH WIND       PRES   REMARKS
PROVIDENCE     PTSUNNY   66  50  56 E10       29.82R
NEWPORT        PTSUNNY   63  53  70 SE6       29.81R
SMITHFIELD     CLOUDY    65  50  58 VRB7      29.82R
WESTERLY       PTSUNNY   64  52  64 E14G20    29.80S
$$

CTZALL-242300-
CONNECTICUT

CITY           SKY/WX    TMP DP  RH WIND       PRES   REMARKS
BRADLEY INTL   CLOUDY    72  48  42 E12       29.78S
HARTFORD       PTSUNNY   71  51  49 E6        29.77S
BRIDGEPORT     MOSUNNY   66  52  60 E7        29.78S
DANBURY        MOSUNNY   65  53  65 S9        29.78S
GROTON         MOSUNNY   61  51  70 E14       29.77F
NEW HAVEN      PTSUNNY   64  49  57 SE9       29.78F
CHESTER        DRIZZLE   63  50  63 SE6       29.79F
MERIDEN        PTSUNNY   66  53  63 SE5       29.76F
WILLIMANTIC    CLOUDY    72  49  44 NE9       29.79R
OXFORD         PTSUNNY   64  52  63 S8        29.78F
$$

MEZ002-015-021-024-NHZ003-005-008-011-012-014-VTZ005-008-242300-
NORTHERN NEW ENGLAND

CITY           SKY/WX    TMP DP  RH WIND       PRES   REMARKS
PORTLAND ME    CLOUDY    64  48  56 S7        29.83R
BANGOR ME      PTSUNNY   69  48  47 S12       29.80R
CONCORD NH     MOSUNNY   71  51  49 SE5       29.80S
MANCHESTER NH  PTSUNNY   70  46  42 SE3       29.79S
NASHUA NH      SUNNY     72  51  47 VRB6      29.81R
PORTSMOUTH NH  PTSUNNY   64  49  57 SE9       29.81S
JAFFREY NH     SUNNY     69  49  48 VRB5      29.81S
KEENE NH       SUNNY     71  49  45 CALM      29.79R
BURLINGTON VT  CLOUDY    75  50  41 S8        29.74S
MT. WASHINGTON CLOUDY    43  39  87 NW3         N/A
$$

NYZ052-076-242300-
EASTERN NEW YORK

CITY           SKY/WX    TMP DP  RH WIND       PRES   REMARKS
ALBANY         CLOUDY    75  47  36 SE8       29.73F
NEW YORK CITY  CLOUDY    66  50  56 NE8       29.77F
$$

ANZALL-242300-
MARINE OBSERVATIONS

STATION/POSITION TIME  TEMP    WIND        PRES    VSBY  WAVE
                       AIR SEA DIR/SP/G                  HT/PER
                 (UTC) (F)     (DEG/KT/KT) (MB)    (MI)  (FT/S)
BOSTON BUOY      2150   56 56   70/  2/  2 1010.6R         2/ 8
BUZZARDS BAY     2200   57      80/ 15/ 15 1009.9R
NANTUCKET SOUND  2150      54              1009.1R         1/ 3
MASS BAY-STELLWA 2104   56 55  130/  4/  6 1009.4R         2/ 7
ISLE OF SHOALS   2200   56     130/  4/  5 1010.0R
S OF BLOCK IS    2125      53                N/A           5/ 8
$$

......................KEY.........................
  SKY/WX - SKY CONDITION/PRESENT WEATHER
  TMP    - TEMPERATURE IN FAHRENHEIT
  DWPT   - DEWPOINT IN FAHRENHEIT
  RH     - RELATIVE HUMIDITY IN PERCENT
  WIND   - DIRECTION AND SPEED IN MPH
  PRES   - MEAN SEA LEVEL PRESSURE IN INCHES OF HG
  WCI    - WIND CHILL INDEX
  VSB    - VISIBILITY IN MILES
  HX     - HEAT INDEX
  TC     - TEMPERATURE IN CELSIUS
  VRB    - VARIABLE WIND DIRECTION
  N/A    - NOT AVAILABLE




USA.gov is the U.S. government's official web portal to all federal, state and local government web resources and services.